Time,TemperatureF,DewpointF,PressureIn,WindDirection,WindDirectionDegrees,WindSpeedMPH,WindSpeedGustMPH,Humidity,HourlyPrecipIn,Conditions,Clouds,dailyrainin,SoftwareType,DateUTC
2013-05-13 00:05:00,37.9,32.0,29.87,NNE,14,5.0,19.0,79,0.00,,,0.00,Wunderground v.1.15,2013-05-13 04:05:00,
2013-05-13 00:09:00,37.9,32.0,29.87,North,5,4.0,4.0,79,0.00,,,0.00,Wunderground v.1.15,2013-05-13 04:09:00,
2013-05-13 00:15:00,38.0,32.1,29.87,NW,317,3.0,4.0,79,0.00,,,0.00,Wunderground v.1.15,2013-05-13 04:15:00,
2013-05-13 00:20:00,38.0,31.4,29.88,NNW,334,2.0,2.0,77,0.00,,,0.00,Wunderground v.1.15,2013-05-13 04:20:00,
2013-05-13 00:24:00,38.2,31.3,29.88,North,5,2.0,5.0,76,0.00,,,0.00,Wunderground v.1.15,2013-05-13 04:24:00,
2013-05-13 00:34:00,38.3,30.1,29.88,NW,312,3.0,3.0,72,0.00,,,0.00,Wunderground v.1.15,2013-05-13 04:34:00,
2013-05-13 00:45:00,38.5,28.1,29.88,NNW,329,5.0,9.0,66,0.00,,,0.00,Wunderground v.1.15,2013-05-13 04:45:00,
2013-05-13 00:54:00,38.6,27.5,29.87,NNW,331,4.0,5.0,64,0.00,,,0.00,Wunderground v.1.15,2013-05-13 04:54:00,
2013-05-13 01:05:00,38.6,27.5,29.88,North,355,3.0,17.0,64,0.00,,,0.00,Wunderground v.1.15,2013-05-13 05:05:00,
2013-05-13 01:14:00,38.5,26.6,29.88,North,355,4.0,17.0,62,0.00,,,0.00,Wunderground v.1.15,2013-05-13 05:14:00,
2013-05-13 01:25:00,38.3,26.8,29.88,NNW,329,2.0,17.0,63,0.00,,,0.00,Wunderground v.1.15,2013-05-13 05:25:00,
2013-05-13 01:34:00,38.2,26.3,29.88,North,350,3.0,3.0,62,0.00,,,0.00,Wunderground v.1.15,2013-05-13 05:34:00,
2013-05-13 01:44:00,38.3,26.0,29.88,NNW,331,5.0,5.0,61,0.00,,,0.00,Wunderground v.1.15,2013-05-13 05:44:00,
2013-05-13 01:50:00,38.3,26.0,29.89,NNW,332,3.0,17.0,61,0.00,,,0.00,Wunderground v.1.15,2013-05-13 05:50:00,
2013-05-13 01:59:00,38.3,26.0,29.89,WNW,297,3.0,17.0,61,0.00,,,0.00,Wunderground v.1.15,2013-05-13 05:59:00,
2013-05-13 02:05:00,38.5,26.6,29.88,WNW,292,3.0,17.0,62,0.00,,,0.00,Wunderground v.1.15,2013-05-13 06:05:00,
2013-05-13 02:14:00,38.5,27.0,29.88,North,5,1.0,7.0,63,0.00,,,0.00,Wunderground v.1.15,2013-05-13 06:14:00,
2013-05-13 02:24:00,38.6,26.7,29.88,NNW,329,2.0,5.0,62,0.00,,,0.00,Wunderground v.1.15,2013-05-13 06:24:00,
2013-05-13 02:30:00,38.6,26.7,29.88,North,349,2.0,2.0,62,0.00,,,0.00,Wunderground v.1.15,2013-05-13 06:30:00,
2013-05-13 02:39:00,38.6,27.1,29.87,West,268,1.0,1.0,63,0.00,,,0.00,Wunderground v.1.15,2013-05-13 06:39:00,
2013-05-13 02:49:00,38.6,27.8,29.87,NNW,338,1.0,1.0,65,0.00,,,0.00,Wunderground v.1.15,2013-05-13 06:49:00,
2013-05-13 02:55:00,38.5,27.7,29.87,North,360,1.0,1.0,65,0.00,,,0.00,Wunderground v.1.15,2013-05-13 06:55:00,
2013-05-13 03:05:00,38.5,28.1,29.87,NNW,336,1.0,1.0,66,0.00,,,0.00,Wunderground v.1.15,2013-05-13 07:05:00,
2013-05-13 03:14:00,38.3,27.9,29.87,NW,325,1.0,4.0,66,0.00,,,0.00,Wunderground v.1.15,2013-05-13 07:14:00,
2013-05-13 03:24:00,38.2,27.5,29.87,NW,316,4.0,6.0,65,0.00,,,0.00,Wunderground v.1.15,2013-05-13 07:24:00,
2013-05-13 03:35:00,38.0,27.6,29.88,NW,325,2.0,21.0,66,0.00,,,0.00,Wunderground v.1.15,2013-05-13 07:35:00,
2013-05-13 03:44:00,38.0,28.0,29.88,NW,312,2.0,4.0,67,0.00,,,0.00,Wunderground v.1.15,2013-05-13 07:44:00,
2013-05-13 03:54:00,38.0,28.4,29.88,NNE,21,1.0,21.0,68,0.00,,,0.00,Wunderground v.1.15,2013-05-13 07:54:00,
2013-05-13 04:00:00,37.9,28.6,29.88,ENE,68,1.0,1.0,69,0.00,,,0.00,Wunderground v.1.15,2013-05-13 08:00:00,
2013-05-13 04:05:00,37.9,28.6,29.88,North,351,1.0,1.0,69,0.00,,,0.00,Wunderground v.1.15,2013-05-13 08:05:00,
2013-05-13 04:14:00,37.6,28.7,29.88,East,101,1.0,9.0,70,0.00,,,0.00,Wunderground v.1.15,2013-05-13 08:14:00,
2013-05-13 04:24:00,37.3,27.7,29.88,NNW,330,5.0,5.0,68,0.00,,,0.00,Wunderground v.1.15,2013-05-13 08:24:00,
2013-05-13 04:35:00,37.3,27.3,29.89,North,350,3.0,9.0,67,0.00,,,0.00,Wunderground v.1.15,2013-05-13 08:35:00,
2013-05-13 04:44:00,37.3,27.3,29.89,North,355,3.0,4.0,67,0.00,,,0.00,Wunderground v.1.15,2013-05-13 08:44:00,
2013-05-13 04:54:00,37.2,26.9,29.89,NNW,346,2.0,4.0,66,0.00,,,0.00,Wunderground v.1.15,2013-05-13 08:54:00,
2013-05-13 05:05:00,37.0,26.7,29.89,NNW,340,2.0,15.0,66,0.00,,,0.00,Wunderground v.1.15,2013-05-13 09:05:00,
2013-05-13 05:14:00,36.8,26.9,29.89,NW,325,2.0,15.0,67,0.00,,,0.00,Wunderground v.1.15,2013-05-13 09:14:00,
2013-05-13 05:24:00,36.6,27.0,29.89,NW,326,2.0,15.0,68,0.00,,,0.00,Wunderground v.1.15,2013-05-13 09:24:00,
2013-05-13 05:34:00,36.5,26.9,29.90,NNW,342,1.0,15.0,68,0.00,,,0.00,Wunderground v.1.15,2013-05-13 09:34:00,
2013-05-13 05:40:00,36.5,27.3,29.90,NW,315,2.0,2.0,69,0.00,,,0.00,Wunderground v.1.15,2013-05-13 09:40:00,
2013-05-13 05:49:00,36.5,27.3,29.91,NNW,348,1.0,1.0,69,0.00,,,0.00,Wunderground v.1.15,2013-05-13 09:49:00,
2013-05-13 05:59:00,36.2,27.4,29.91,NW,323,1.0,1.0,70,0.00,,,0.00,Wunderground v.1.15,2013-05-13 09:59:00,
2013-05-13 06:05:00,36.0,27.2,29.91,NNW,347,1.0,1.0,70,0.00,,,0.00,Wunderground v.1.15,2013-05-13 10:05:00,
2013-05-13 06:14:00,35.9,27.4,29.91,NW,306,0.0,3.0,71,0.00,,,0.00,Wunderground v.1.15,2013-05-13 10:14:00,
2013-05-13 06:24:00,35.9,27.4,29.92,NNW,335,1.0,3.0,71,0.00,,,0.00,Wunderground v.1.15,2013-05-13 10:24:00,
2013-05-13 06:34:00,36.0,27.5,29.93,WNW,288,0.0,0.0,71,0.00,,,0.00,Wunderground v.1.15,2013-05-13 10:34:00,
2013-05-13 06:44:00,36.3,28.1,29.93,NW,311,0.0,0.0,72,0.00,,,0.00,Wunderground v.1.15,2013-05-13 10:44:00,
2013-05-13 06:54:00,36.3,27.8,29.93,NW,323,1.0,1.0,71,0.00,,,0.00,Wunderground v.1.15,2013-05-13 10:54:00,
2013-05-13 07:05:00,36.5,27.6,29.93,NW,323,1.0,5.0,70,0.00,,,0.00,Wunderground v.1.15,2013-05-13 11:05:00,
2013-05-13 07:15:00,36.8,27.9,29.93,North,355,0.0,15.0,70,0.00,,,0.00,Wunderground v.1.15,2013-05-13 11:15:00,
2013-05-13 07:24:00,36.9,27.7,29.94,NNW,339,0.0,15.0,69,0.00,,,0.00,Wunderground v.1.15,2013-05-13 11:24:00,
2013-05-13 07:34:00,37.0,27.4,29.94,NNW,333,1.0,15.0,68,0.00,,,0.00,Wunderground v.1.15,2013-05-13 11:34:00,
2013-05-13 07:44:00,37.2,27.2,29.94,NW,315,1.0,3.0,67,0.00,,,0.00,Wunderground v.1.15,2013-05-13 11:44:00,
2013-05-13 07:54:00,37.3,27.0,29.95,NW,311,1.0,15.0,66,0.00,,,0.00,Wunderground v.1.15,2013-05-13 11:54:00,
2013-05-13 08:05:00,37.8,27.8,29.95,NW,308,0.0,15.0,67,0.00,,,0.00,Wunderground v.1.15,2013-05-13 12:05:00,
2013-05-13 08:14:00,37.8,27.8,29.95,NW,325,1.0,1.0,67,0.00,,,0.00,Wunderground v.1.15,2013-05-13 12:14:00,
2013-05-13 08:20:00,37.8,27.5,29.96,NW,324,2.0,2.0,66,0.00,,,0.00,Wunderground v.1.15,2013-05-13 12:20:00,
2013-05-13 08:29:00,38.0,27.3,29.96,NW,313,3.0,3.0,65,0.00,,,0.00,Wunderground v.1.15,2013-05-13 12:29:00,
2013-05-13 08:39:00,38.3,27.9,29.96,North,355,2.0,3.0,66,0.00,,,0.00,Wunderground v.1.15,2013-05-13 12:39:00,
2013-05-13 08:45:00,38.5,28.1,29.96,North,355,2.0,3.0,66,0.00,,,0.00,Wunderground v.1.15,2013-05-13 12:45:00,
2013-05-13 08:54:00,38.8,28.0,29.96,NE,46,1.0,2.0,65,0.00,,,0.00,Wunderground v.1.15,2013-05-13 12:54:00,
2013-05-13 09:05:00,39.1,28.3,29.96,NW,326,2.0,10.0,65,0.00,,,0.00,Wunderground v.1.15,2013-05-13 13:05:00,
2013-05-13 09:14:00,39.1,27.9,29.96,NNW,327,2.0,10.0,64,0.00,,,0.00,Wunderground v.1.15,2013-05-13 13:14:00,
2013-05-13 09:24:00,39.1,27.9,29.97,NW,319,2.0,10.0,64,0.00,,,0.00,Wunderground v.1.15,2013-05-13 13:24:00,
2013-05-13 09:29:00,39.2,28.4,29.97,NNW,337,2.0,10.0,65,0.00,,,0.00,Wunderground v.1.15,2013-05-13 13:29:00,
2013-05-13 09:39:00,39.5,27.5,29.97,WNW,296,3.0,10.0,62,0.00,,,0.00,Wunderground v.1.15,2013-05-13 13:39:00,
2013-05-13 09:50:00,39.3,27.7,29.98,NNW,327,2.0,10.0,63,0.00,,,0.00,Wunderground v.1.15,2013-05-13 13:50:00,
2013-05-13 09:59:00,39.5,28.3,29.98,NNW,327,2.0,2.0,64,0.00,,,0.00,Wunderground v.1.15,2013-05-13 13:59:00,
2013-05-13 10:05:00,39.8,27.8,29.98,North,9,3.0,3.0,62,0.00,,,0.00,Wunderground v.1.15,2013-05-13 14:05:00,
2013-05-13 10:14:00,40.3,28.3,29.98,NW,314,1.0,5.0,62,0.00,,,0.00,Wunderground v.1.15,2013-05-13 14:14:00,
2013-05-13 10:25:00,40.8,28.8,29.98,NE,55,4.0,4.0,62,0.00,,,0.00,Wunderground v.1.15,2013-05-13 14:25:00,
2013-05-13 10:34:00,40.8,28.8,29.99,NW,314,2.0,6.0,62,0.00,,,0.00,Wunderground v.1.15,2013-05-13 14:34:00,
2013-05-13 10:44:00,40.8,28.4,29.99,West,264,3.0,3.0,61,0.00,,,0.00,Wunderground v.1.15,2013-05-13 14:44:00,
2013-05-13 10:50:00,40.8,28.8,30.00,NW,314,2.0,4.0,62,0.00,,,0.00,Wunderground v.1.15,2013-05-13 14:50:00,
2013-05-13 10:59:00,41.1,27.9,30.00,NE,42,2.0,2.0,59,0.00,,,0.00,Wunderground v.1.15,2013-05-13 14:59:00,
2013-05-13 11:05:00,40.8,28.0,30.00,NW,325,2.0,12.0,60,0.00,,,0.00,Wunderground v.1.15,2013-05-13 15:05:00,
2013-05-13 11:14:00,40.6,28.2,30.00,NNW,342,1.0,3.0,61,0.00,,,0.00,Wunderground v.1.15,2013-05-13 15:14:00,
2013-05-13 11:24:00,41.2,28.4,30.00,NNW,341,1.0,12.0,60,0.00,,,0.00,Wunderground v.1.15,2013-05-13 15:24:00,
2013-05-13 11:34:00,41.9,28.2,30.00,NNW,329,1.0,12.0,58,0.00,,,0.00,Wunderground v.1.15,2013-05-13 15:34:00,
2013-05-13 11:44:00,41.3,28.4,30.00,WNW,288,2.0,12.0,60,0.00,,,0.00,Wunderground v.1.15,2013-05-13 15:44:00,
2013-05-13 11:49:00,41.1,28.3,30.00,NNW,342,2.0,2.0,60,0.00,,,0.00,Wunderground v.1.15,2013-05-13 15:49:00,
2013-05-13 11:59:00,41.1,28.7,30.00,WNW,302,2.0,12.0,61,0.00,,,0.00,Wunderground v.1.15,2013-05-13 15:59:00,
2013-05-13 12:05:00,41.1,28.3,30.00,NW,319,1.0,12.0,60,0.00,,,0.00,Wunderground v.1.15,2013-05-13 16:05:00,
2013-05-13 12:14:00,40.8,27.6,30.00,NW,319,2.0,6.0,59,0.00,,,0.00,Wunderground v.1.15,2013-05-13 16:14:00,
2013-05-13 12:24:00,41.3,28.4,30.01,North,350,2.0,3.0,60,0.00,,,0.00,Wunderground v.1.15,2013-05-13 16:24:00,
2013-05-13 12:34:00,42.5,29.2,30.00,NE,47,2.0,2.0,59,0.00,,,0.00,Wunderground v.1.15,2013-05-13 16:34:00,
2013-05-13 12:44:00,42.5,28.8,30.00,WNW,302,1.0,5.0,58,0.00,,,0.00,Wunderground v.1.15,2013-05-13 16:44:00,
2013-05-13 12:49:00,42.2,28.9,30.01,NNW,328,2.0,2.0,59,0.00,,,0.00,Wunderground v.1.15,2013-05-13 16:49:00,
2013-05-13 12:59:00,42.9,28.7,30.01,North,351,2.0,2.0,57,0.00,,,0.00,Wunderground v.1.15,2013-05-13 16:59:00,
2013-05-13 13:05:00,42.9,28.7,30.00,WSW,250,1.0,13.0,57,0.00,,,0.00,Wunderground v.1.15,2013-05-13 17:05:00,
2013-05-13 13:14:00,42.1,29.6,30.00,North,349,2.0,13.0,61,0.00,,,0.00,Wunderground v.1.15,2013-05-13 17:14:00,
2013-05-13 13:25:00,42.9,28.7,30.00,NW,321,2.0,13.0,57,0.00,,,0.00,Wunderground v.1.15,2013-05-13 17:25:00,
2013-05-13 13:34:00,43.5,27.0,30.00,SE,140,2.0,13.0,52,0.00,,,0.00,Wunderground v.1.15,2013-05-13 17:34:00,
2013-05-13 13:44:00,44.5,28.0,30.00,NNW,333,2.0,7.0,52,0.00,,,0.00,Wunderground v.1.15,2013-05-13 17:44:00,
2013-05-13 13:50:00,44.5,27.5,30.00,NNW,330,3.0,13.0,51,0.00,,,0.00,Wunderground v.1.15,2013-05-13 17:50:00,
2013-05-13 13:59:00,43.3,26.8,30.00,NNW,336,4.0,4.0,52,0.00,,,0.00,Wunderground v.1.15,2013-05-13 17:59:00,
2013-05-13 14:05:00,43.8,27.8,30.00,WNW,286,2.0,4.0,53,0.00,,,0.00,Wunderground v.1.15,2013-05-13 18:05:00,
2013-05-13 14:14:00,44.8,27.3,30.00,North,5,3.0,3.0,50,0.00,,,0.00,Wunderground v.1.15,2013-05-13 18:14:00,
2013-05-13 14:25:00,43.5,29.7,30.01,WNW,296,3.0,3.0,58,0.00,,,0.00,Wunderground v.1.15,2013-05-13 18:25:00,
2013-05-13 14:34:00,44.8,27.3,30.00,NNW,334,4.0,4.0,50,0.00,,,0.00,Wunderground v.1.15,2013-05-13 18:34:00,
2013-05-13 14:44:00,46.4,28.3,30.00,NNW,328,4.0,5.0,49,0.00,,,0.00,Wunderground v.1.15,2013-05-13 18:44:00,
2013-05-13 14:49:00,45.4,28.8,30.00,NE,53,5.0,5.0,52,0.00,,,0.00,Wunderground v.1.15,2013-05-13 18:49:00,
2013-05-13 14:59:00,44.6,28.5,30.00,NE,46,2.0,4.0,53,0.00,,,0.00,Wunderground v.1.15,2013-05-13 18:59:00,
2013-05-13 15:05:00,44.9,28.3,30.00,NW,315,1.0,16.0,52,0.00,,,0.00,Wunderground v.1.15,2013-05-13 19:05:00,
2013-05-13 15:14:00,45.8,29.2,30.00,NW,316,2.0,16.0,52,0.00,,,0.00,Wunderground v.1.15,2013-05-13 19:14:00,
2013-05-13 15:25:00,46.1,27.0,30.00,NNW,329,4.0,16.0,47,0.00,,,0.00,Wunderground v.1.15,2013-05-13 19:25:00,
2013-05-13 15:34:00,46.7,27.0,29.99,WNW,302,4.0,16.0,46,0.00,,,0.00,Wunderground v.1.15,2013-05-13 19:34:00,
2013-05-13 15:45:00,46.0,27.4,29.99,NE,49,4.0,16.0,48,0.00,,,0.00,Wunderground v.1.15,2013-05-13 19:45:00,
2013-05-13 15:54:00,45.1,27.6,30.00,North,360,4.0,6.0,50,0.00,,,0.00,Wunderground v.1.15,2013-05-13 19:54:00,
2013-05-13 16:05:00,45.4,28.3,30.00,WNW,301,2.0,5.0,51,0.00,,,0.00,Wunderground v.1.15,2013-05-13 20:05:00,
2013-05-13 16:14:00,45.7,28.1,30.00,North,360,3.0,6.0,50,0.00,,,0.00,Wunderground v.1.15,2013-05-13 20:14:00,
2013-05-13 16:24:00,45.8,27.7,30.00,ENE,58,2.0,5.0,49,0.00,,,0.00,Wunderground v.1.15,2013-05-13 20:24:00,
2013-05-13 16:34:00,45.2,26.7,30.00,NE,36,4.0,4.0,48,0.00,,,0.00,Wunderground v.1.15,2013-05-13 20:34:00,
2013-05-13 16:44:00,45.5,27.9,30.00,NW,317,2.0,4.0,50,0.00,,,0.00,Wunderground v.1.15,2013-05-13 20:44:00,
2013-05-13 16:50:00,45.4,27.8,30.01,NW,313,2.0,2.0,50,0.00,,,0.00,Wunderground v.1.15,2013-05-13 20:50:00,
2013-05-13 16:59:00,45.1,27.1,30.01,North,355,2.0,2.0,49,0.00,,,0.00,Wunderground v.1.15,2013-05-13 20:59:00,
2013-05-13 17:05:00,45.1,28.5,30.01,NW,317,2.0,17.0,52,0.00,,,0.00,Wunderground v.1.15,2013-05-13 21:05:00,
2013-05-13 17:14:00,44.9,28.3,30.01,North,355,4.0,17.0,52,0.00,,,0.00,Wunderground v.1.15,2013-05-13 21:14:00,
2013-05-13 17:24:00,44.8,28.2,30.01,NNW,333,2.0,17.0,52,0.00,,,0.00,Wunderground v.1.15,2013-05-13 21:24:00,
2013-05-13 17:29:00,45.4,28.3,30.01,NE,55,2.0,2.0,51,0.00,,,0.00,Wunderground v.1.15,2013-05-13 21:29:00,
2013-05-13 17:39:00,45.8,28.7,30.01,WNW,290,3.0,17.0,51,0.00,,,0.00,Wunderground v.1.15,2013-05-13 21:39:00,
2013-05-13 17:49:00,46.7,28.5,30.01,NW,319,3.0,3.0,49,0.00,,,0.00,Wunderground v.1.15,2013-05-13 21:49:00,
2013-05-13 17:54:00,46.8,27.6,30.01,NW,318,3.0,17.0,47,0.00,,,0.00,Wunderground v.1.15,2013-05-13 21:54:00,
2013-05-13 18:05:00,46.5,26.8,30.01,NW,312,3.0,17.0,46,0.00,,,0.00,Wunderground v.1.15,2013-05-13 22:05:00,
2013-05-13 18:14:00,45.8,26.7,30.01,NNW,346,4.0,4.0,47,0.00,,,0.00,Wunderground v.1.15,2013-05-13 22:14:00,
2013-05-13 18:24:00,44.8,27.8,30.01,NW,323,3.0,4.0,51,0.00,,,0.00,Wunderground v.1.15,2013-05-13 22:24:00,
2013-05-13 18:34:00,44.5,28.9,30.01,NNW,342,1.0,2.0,54,0.00,,,0.00,Wunderground v.1.15,2013-05-13 22:34:00,
2013-05-13 18:39:00,44.8,28.2,30.01,NNW,333,1.0,1.0,52,0.00,,,0.00,Wunderground v.1.15,2013-05-13 22:39:00,
2013-05-13 18:49:00,45.2,27.6,30.01,NNW,329,1.0,2.0,50,0.00,,,0.00,Wunderground v.1.15,2013-05-13 22:49:00,
2013-05-13 18:59:00,46.0,27.9,30.01,NNW,347,3.0,3.0,49,0.00,,,0.00,Wunderground v.1.15,2013-05-13 22:59:00,
2013-05-13 19:05:00,46.1,28.0,30.02,NW,308,3.0,11.0,49,0.00,,,0.00,Wunderground v.1.15,2013-05-13 23:05:00,
2013-05-13 19:14:00,45.2,27.2,30.02,NW,309,3.0,15.0,49,0.00,,,0.00,Wunderground v.1.15,2013-05-13 23:14:00,
2013-05-13 19:19:00,44.8,27.8,30.02,NW,325,2.0,15.0,51,0.00,,,0.00,Wunderground v.1.15,2013-05-13 23:19:00,
2013-05-13 19:29:00,44.1,27.6,30.02,NW,317,2.0,2.0,52,0.00,,,0.00,Wunderground v.1.15,2013-05-13 23:29:00,
2013-05-13 19:39:00,44.1,27.6,30.03,NNW,341,1.0,1.0,52,0.00,,,0.00,Wunderground v.1.15,2013-05-13 23:39:00,
2013-05-13 19:49:00,44.2,28.1,30.02,NNW,329,0.0,15.0,53,0.00,,,0.00,Wunderground v.1.15,2013-05-13 23:49:00,
2013-05-13 19:54:00,44.3,27.8,30.02,NNW,344,0.0,15.0,52,0.00,,,0.00,Wunderground v.1.15,2013-05-13 23:54:00,
2013-05-13 20:05:00,44.3,28.2,30.03,NNW,344,1.0,15.0,53,0.00,,,0.00,Wunderground v.1.15,2013-05-14 00:05:00,
2013-05-13 20:14:00,43.8,28.7,30.03,North,350,1.0,1.0,55,0.00,,,0.00,Wunderground v.1.15,2013-05-14 00:14:00,
2013-05-13 20:24:00,43.2,29.0,30.03,WNW,290,0.0,0.0,57,0.00,,,0.00,Wunderground v.1.15,2013-05-14 00:24:00,
2013-05-13 20:35:00,42.6,28.4,30.04,NNW,336,0.0,0.0,57,0.00,,,0.00,Wunderground v.1.15,2013-05-14 00:35:00,
2013-05-13 20:44:00,42.3,28.6,30.04,NW,322,0.0,0.0,58,0.00,,,0.00,Wunderground v.1.15,2013-05-14 00:44:00,
2013-05-13 20:54:00,42.3,28.6,30.04,NNW,331,0.0,0.0,58,0.00,,,0.00,Wunderground v.1.15,2013-05-14 00:54:00,
2013-05-13 21:00:00,42.3,28.6,30.04,NNW,346,0.0,0.0,58,0.00,,,0.00,Wunderground v.1.15,2013-05-14 01:00:00,
2013-05-13 21:05:00,42.2,28.5,30.04,WNW,302,0.0,1.0,58,0.00,,,0.00,Wunderground v.1.15,2013-05-14 01:05:00,
2013-05-13 21:14:00,42.1,28.8,30.04,NNW,336,0.0,18.0,59,0.00,,,0.00,Wunderground v.1.15,2013-05-14 01:14:00,
2013-05-13 21:24:00,41.9,29.0,30.05,NNW,334,0.0,18.0,60,0.00,,,0.00,Wunderground v.1.15,2013-05-14 01:24:00,
2013-05-13 21:34:00,41.6,29.5,30.06,NNW,336,0.0,18.0,62,0.00,,,0.00,Wunderground v.1.15,2013-05-14 01:34:00,
2013-05-13 21:40:00,41.5,29.4,30.06,NNW,335,0.0,18.0,62,0.00,,,0.00,Wunderground v.1.15,2013-05-14 01:40:00,
2013-05-13 21:49:00,41.1,29.5,30.06,NNW,335,0.0,18.0,63,0.00,,,0.00,Wunderground v.1.15,2013-05-14 01:49:00,
2013-05-13 21:59:00,40.5,29.3,30.06,NNW,335,0.0,18.0,64,0.00,,,0.00,Wunderground v.1.15,2013-05-14 01:59:00,
2013-05-13 22:05:00,40.3,29.5,30.06,NNW,335,0.0,18.0,65,0.00,,,0.00,Wunderground v.1.15,2013-05-14 02:05:00,
2013-05-13 22:15:00,40.1,29.6,30.06,NNW,335,0.0,0.0,66,0.00,,,0.00,Wunderground v.1.15,2013-05-14 02:15:00,
2013-05-13 22:24:00,39.8,29.4,30.07,NNW,335,0.0,0.0,66,0.00,,,0.00,Wunderground v.1.15,2013-05-14 02:24:00,
2013-05-13 22:34:00,39.5,29.8,30.07,NNW,335,0.0,0.0,68,0.00,,,0.00,Wunderground v.1.15,2013-05-14 02:34:00,
2013-05-13 22:44:00,39.5,29.8,30.07,NNW,335,0.0,0.0,68,0.00,,,0.00,Wunderground v.1.15,2013-05-14 02:44:00,
2013-05-13 22:54:00,39.1,29.8,30.07,NNW,335,0.0,0.0,69,0.00,,,0.00,Wunderground v.1.15,2013-05-14 02:54:00,
2013-05-13 23:05:00,38.6,29.7,30.07,NNW,335,0.0,10.0,70,0.00,,,0.00,Wunderground v.1.15,2013-05-14 03:05:00,
2013-05-13 23:14:00,38.3,29.7,30.07,NNW,335,0.0,10.0,71,0.00,,,0.00,Wunderground v.1.15,2013-05-14 03:14:00,
2013-05-13 23:19:00,38.2,29.6,30.07,NNW,335,0.0,10.0,71,0.00,,,0.00,Wunderground v.1.15,2013-05-14 03:19:00,
2013-05-13 23:29:00,37.2,29.7,30.07,NNW,335,0.0,10.0,74,0.00,,,0.00,Wunderground v.1.15,2013-05-14 03:29:00,
2013-05-13 23:39:00,36.3,29.5,30.08,NNW,335,0.0,10.0,76,0.00,,,0.00,Wunderground v.1.15,2013-05-14 03:39:00,
2013-05-13 23:49:00,35.6,29.7,30.08,NNW,335,0.0,10.0,79,0.00,,,0.00,Wunderground v.1.15,2013-05-14 03:49:00,
2013-05-13 23:59:00,35.2,29.6,30.08,NNW,335,0.0,10.0,80,0.00,,,0.00,Wunderground v.1.15,2013-05-14 03:59:00,